Showing default

TIANHUI 2-02A, 49071

Orbit data source: Space-Track

TIANHUI 2-02A, 49071 is a payload satellite owned by G. Cehui dili (CN) in SSO that was launched on Wed, 18 Aug 2021 UTC via a CHANG ZHENG 4B launch vehicle from the Taiyaun Space Center, China (TSC). Payload-class satellites include a variety of spacecraft equipped with specific instruments for various scientific and technological missions. These include communications satellites like Starlink; space stations such as the ISS; scientific satellites like the Hubble; Earth observation satellites from companies like Planet Labs, Umbra, and HawkEye 360; GPS; miniature CubeSats for education and research; and military/defense satellites.

Loading next visibility...
Identifier
49071, 2021-074A
Orbit
SSO
Country
Flag of CNCN / PRC
Related business
Manufacturer
SAST
Mission
Operational Civil Radar Imaging
Bus & Motor
CAST-2000?, Unknown motor
Mass
~1,000 kg wet, ~1,000 kg dry
Launch date (UTC)
2021-08-18 (5 years ago)
Launch vehicle
CHANG ZHENG 4B
Launch site
Taiyaun Space Center, China (TSC)
Object type
Payload
Rocket body
Debris
Shape & HBR
Box + 2 Pan, 1.5 m
Radar Cross Section
2.045 m², Large (>1 m²)

Expand to show TLE details & history
Last TLE update: 3 days ago

TLE from 3 days ago
0 TIANHUI 2-02A
1 49071U 21074A   26170.50475062  .00001492  00000-0  79526-4 0  9999
2 49071  97.4810 173.7014 0001765 101.2337 258.9095 15.16722150267622
Epoch: 2026-06-19T12:06Z
TLE epoch observation values (Epoch: 2026-06-19T12:06:50.453Z)
Latitude
0.00001°
Longitude
84.25841°
Altitude
519.073 km
Speed
7.604 km/s
True Right ascension
11h 34m 48s
True Declination
0° 00' 00"
Sunlit
Object was in daylight at epoch
Visualization orbit readout
Latitude
Unknown
Longitude
Unknown
Altitude
Unknown
Speed
Unknown
Apparent Right ascension
Unknown
Apparent Declination
Unknown
Sunlit
N/A
Visualization observer readout
Local Sidereal Time
21:49:03
Azimuth
Unknown
Elevation
Unknown
Doppler factor
Unknown
Orbital elements
Apogee altitude
513.945 km
Perigee altitude
511.512 km
Semi-major axis
6,890.866 km
Eccentricity
0.00018
Inclination
97.481°
RAAN
173.7014°
Arg. of periapsis
101.2337°
True anomaly
258.88965°
Mean anomaly
258.9095°
Eccentric anomaly
258.89958°
Mean motion
3.79431 °/min
Orbital period
94.88 mins
BSTAR
0.000079526
Loading maneuver chart data...
Computing Atmospheric mass density...
Loading historical data...
Loading historical data...
Loading historical data...
Loading historical data...
Loading historical data...
Loading historical data...
Loading historical data...
Other satellites on launch #74 in the year 2021 (2021-08-18 UTC)

Documentation

Showing up to 5 results
|